JIAOTONG VDES

导读

JIAOTONG VDES卫星即行云交通VDES试验卫星,是中国于北京时间2022年12月7日,在酒泉卫星发射中心通过快舟十一号遥二运载火箭成功送入预定轨道的试验卫星。该卫星承载VDES甚高频数据交换系统载荷,主要服务海上交通管控与搜救工作,验证VDES卫星通信技术,推动我国海事通信体系升级,填补海事卫星数据交换领域技术空白,助力智慧航海建设。

基本信息
目录编号:
54588
目录名称:
JIAOTONG VDES
国际标识:
2022-164A
轨道中心:
EARTH
卫星名称:
JIAOTONG VDES
卫星全名:
--
卫星状态:
在轨 (已飞行1286 天)
发射日期:
2022-12-07 UTC
国别 :
中国 (CN)
星等 :
--
轨道信息
数据来源 国际轨道数据
星历时间: 2026-06-15T05:02:00+0800
6小时前
查看轨道信息
半长轴: 7116.654km
偏心率: 0.0009319
轨道倾角: 98.242°
近地点辐角 342.610°
升交点赤经 185.118°
平近点角 17.477°
近地点: 731.884km
远地点: 745.15km
周期: 99.580分钟
每日圈数: 14.46069
详细信息
使用方式:
暂无
2D轨道图
3D轨道图
轨道高度分析图
轨道倾角分析图
轨道综合分析图
查看轨道综合分析图